Mosby, MO

8:27 PM CDT on September 24, 2016 (GMT -0500)
Clay County Regional

Weather History for KGPH - October, 2012

Change the Weather History Date:

Thursday, October 11, 2012

  Actual Average (KMKC) Record (KMKC)
Temperature  
Mean Temperature 50 °F -  
Max Temperature 68 °F 67 °F 86 °F (2015)
Min Temperature 33 °F 47 °F 39 °F (2006)
Degree Days  
Heating Degree Days 14    
Moisture  
Dew Point 43 °F    
Average Humidity 73    
Maximum Humidity 93    
Minimum Humidity 48    
Precipitation  
Precipitation 0.00 in - - ()
Sea Level Pressure  
Sea Level Pressure 30.11 in    
Wind  
Wind Speed 2 mph ()    
Max Wind Speed 18 mph    
Max Gust Speed 25 mph    
Visibility 9.9 miles    
Events      
Averages and records for this station are not official NWS values.
T = Trace of Precipitation, MM = Missing Value Source: Averaged Metar Reports

Daily Weather History Graph

Daily Weather History Graph

Search for Another Location

Airport or City:

Trip Planner

Search our weather history database for the weather conditions in past years. The results will help you decide how hot, cold, wet, or windy it might be!

Date:

Astronomy

Oct. 11, 2012 Rise Set
Actual Time 7:23 AM CDT 6:43 PM CDT
Civil Twilight 6:56 AM CDT 7:10 PM CDT
Nautical Twilight 6:25 AM CDT 7:41 PM CDT
Astronomical Twilight 5:54 AM CDT 8:12 PM CDT
Moon 3:04 AM CDT (10/11) 4:19 PM CDT (10/11)
Length of Visible Light 12h 13m
Length of Day
11h 19m
Waning Crescent, 18% of the Moon is Illuminated
Oct 11
Waning Crescent
Oct 15
New
Oct 21
First Quarter
Oct 29
Full
Nov 6
Last Quarter

Hourly Weather History & Observations

Time (CDT) Temp. Windchill Dew Point Humidity Pressure Visibility Wind Dir Wind Speed Gust Speed Precip Events Conditions
12:15 AM 39.2 °F - 33.8 °F 81% 30.15 in 10.0 mi Calm Calm - N/A   Clear
12:35 AM 39.2 °F - 33.8 °F 81% 30.15 in 10.0 mi Calm Calm - N/A   Clear
12:55 AM 37.4 °F - 33.8 °F 87% 30.15 in 7.0 mi Calm Calm - N/A   Clear
1:15 AM 37.4 °F - 33.8 °F 87% 30.15 in 10.0 mi Calm Calm - N/A   Clear
1:55 AM 37.4 °F - 33.8 °F 87% 30.15 in 10.0 mi Calm Calm - N/A   Clear
2:15 AM 37.4 °F - 33.8 °F 87% 30.15 in 10.0 mi Calm Calm - N/A   Clear
2:35 AM 35.6 °F - 33.8 °F 93% 30.14 in 10.0 mi Calm Calm - N/A   Clear
2:55 AM 37.4 °F - 33.8 °F 87% 30.14 in 10.0 mi Calm Calm - N/A   Clear
3:15 AM 35.6 °F - 33.8 °F 93% 30.14 in 10.0 mi Calm Calm - N/A   Clear
3:35 AM 35.6 °F - 33.8 °F 93% 30.14 in 10.0 mi Calm Calm - N/A   Clear
3:55 AM 35.6 °F - 33.8 °F 93% 30.14 in 10.0 mi Calm Calm - N/A   Clear
4:15 AM 35.6 °F - 32.0 °F 87% 30.13 in 10.0 mi Calm Calm - N/A   Clear
4:35 AM 35.6 °F 32.8 °F 32.0 °F 87% 30.13 in 10.0 mi East 3.5 mph - N/A   Clear
4:55 AM 35.6 °F - 32.0 °F 87% 30.12 in 10.0 mi Calm Calm - N/A   Clear
5:15 AM 35.6 °F - 32.0 °F 87% 30.12 in 10.0 mi Calm Calm - N/A   Clear
5:35 AM 33.8 °F - 32.0 °F 93% 30.11 in 10.0 mi Calm Calm - N/A   Clear
5:55 AM 35.6 °F - 32.0 °F 87% 30.11 in 10.0 mi Calm Calm - N/A   Clear
6:15 AM 35.6 °F - 33.8 °F 93% 30.11 in 10.0 mi Calm Calm - N/A   Clear
6:35 AM 33.8 °F - 32.0 °F 93% 30.11 in 10.0 mi Calm Calm - N/A   Clear
6:55 AM 33.8 °F - 32.0 °F 93% 30.11 in 10.0 mi Calm Calm - N/A   Clear
7:15 AM 33.8 °F - 32.0 °F 93% 30.10 in 10.0 mi Calm Calm - N/A   Clear
7:35 AM 33.8 °F - 32.0 °F 93% 30.11 in 10.0 mi Calm Calm - N/A   Clear
7:55 AM 33.8 °F - 32.0 °F 93% 30.11 in 10.0 mi Calm Calm - N/A   Clear
8:15 AM 35.6 °F - 33.8 °F 93% 30.11 in 10.0 mi Calm Calm - N/A   Clear
8:35 AM 37.4 °F - 33.8 °F 87% 30.12 in 10.0 mi Calm Calm - N/A   Clear
8:55 AM 41.0 °F - 35.6 °F 81% 30.12 in 10.0 mi Calm Calm - N/A   Scattered Clouds
9:15 AM 44.6 °F - 37.4 °F 76% 30.12 in 10.0 mi Calm Calm - N/A   Scattered Clouds
9:35 AM 48.2 °F - 37.4 °F 66% 30.12 in 10.0 mi SE 3.5 mph - N/A   Clear
9:55 AM 50.0 °F - 39.2 °F 66% 30.12 in 10.0 mi SSE 3.5 mph - N/A   Clear
10:15 AM 53.6 °F - 41.0 °F 62% 30.12 in 10.0 mi SSE 4.6 mph - N/A   Clear
10:35 AM 55.4 °F - 41.0 °F 58% 30.12 in 10.0 mi South 4.6 mph - N/A   Clear
11:15 AM 60.8 °F - 42.8 °F 52% 30.12 in 10.0 mi SSE 8.1 mph - N/A   Mostly Cloudy
11:35 AM 62.6 °F - 44.6 °F 52% 30.12 in 10.0 mi South 5.8 mph - N/A   Mostly Cloudy
11:55 AM 62.6 °F - 44.6 °F 52% 30.11 in 10.0 mi South 6.9 mph - N/A   Mostly Cloudy
12:15 PM 62.6 °F - 46.4 °F 55% 30.11 in 10.0 mi South 6.9 mph - N/A   Mostly Cloudy
12:35 PM 62.6 °F - 46.4 °F 55% 30.10 in 10.0 mi SSE 4.6 mph - N/A   Mostly Cloudy
12:55 PM 64.4 °F - 46.4 °F 52% 30.10 in 10.0 mi SE 4.6 mph - N/A   Mostly Cloudy
1:55 PM 66.2 °F - 50.0 °F 56% 30.06 in 10.0 mi South 5.8 mph - N/A   Scattered Clouds
2:15 PM 66.2 °F - 50.0 °F 56% 30.05 in 10.0 mi Calm Calm - N/A   Clear
2:35 PM 66.2 °F - 50.0 °F 56% 30.05 in 10.0 mi ESE 4.6 mph - N/A   Clear
2:55 PM 68.0 °F - 50.0 °F 52% 30.05 in 10.0 mi East 3.5 mph - N/A   Clear
3:15 PM 68.0 °F - 51.8 °F 56% 30.05 in 10.0 mi Calm Calm - N/A   Clear
3:35 PM 68.0 °F - 51.8 °F 56% 30.05 in 10.0 mi Calm Calm - N/A   Scattered Clouds
3:55 PM 68.0 °F - 51.8 °F 56% 30.05 in 10.0 mi SE 5.8 mph - N/A   Clear
4:15 PM 68.0 °F - 51.8 °F 56% 30.05 in 10.0 mi South 5.8 mph - N/A   Clear
4:35 PM 68.0 °F - 51.8 °F 56% 30.05 in 10.0 mi SSE 3.5 mph - N/A   Clear
4:55 PM 68.0 °F - 53.6 °F 60% 30.05 in 10.0 mi SE 3.5 mph - N/A   Clear
5:35 PM 68.0 °F - 53.6 °F 60% 30.06 in 10.0 mi SSE 4.6 mph - N/A   Mostly Cloudy
5:55 PM 68.0 °F - 53.6 °F 60% 30.06 in 10.0 mi Calm Calm - N/A   Mostly Cloudy
6:15 PM 66.2 °F - 55.4 °F 68% 30.07 in 10.0 mi Calm Calm - N/A   Overcast
6:35 PM 66.2 °F - 55.4 °F 68% 30.07 in 10.0 mi Calm Calm - N/A   Overcast
7:15 PM 64.4 °F - 53.6 °F 68% 30.08 in 10.0 mi South 5.8 mph - N/A   Overcast
7:35 PM 64.4 °F - 53.6 °F 68% 30.09 in 10.0 mi South 3.5 mph - N/A   Scattered Clouds
8:15 PM 62.6 °F - 53.6 °F 72% 30.11 in 7.0 mi SSE 3.5 mph - N/A   Mostly Cloudy
8:35 PM 62.6 °F - 53.6 °F 72% 30.12 in 10.0 mi Calm Calm - N/A   Unknown
8:55 PM 62.6 °F - 53.6 °F 72% 30.13 in 10.0 mi ESE 3.5 mph - N/A   Overcast
9:15 PM 60.8 °F - 53.6 °F 77% 30.14 in 10.0 mi ESE 3.5 mph - N/A   Overcast
9:35 PM 60.8 °F - 53.6 °F 77% 30.15 in 10.0 mi Calm Calm - N/A   Mostly Cloudy
9:55 PM 60.8 °F - 53.6 °F 77% 30.15 in 10.0 mi Calm Calm - N/A   Overcast
10:15 PM 59.0 °F - 53.6 °F 82% 30.17 in 10.0 mi Calm Calm - N/A   Overcast
10:35 PM 59.0 °F - 53.6 °F 82% 30.17 in 10.0 mi Calm Calm - N/A   Overcast
10:55 PM 60.8 °F - 53.6 °F 77% 30.19 in 10.0 mi North 11.5 mph - N/A   Overcast
11:35 PM 60.8 °F - 41.0 °F 48% 30.20 in 10.0 mi North 18.4 mph 25.3 mph N/A   Mostly Cloudy
11:55 PM 55.4 °F - 37.4 °F 51% 30.21 in 10.0 mi NNE 16.1 mph 21.9 mph N/A   Mostly Cloudy